Weather History for Mount Holly, NJ

Change the Weather History Date:

Thursday, September 13, 2012

  Actual Average (KWRI) Record (KWRI)
Temperature  
Mean Temperature 66 °F -  
Max Temperature 81 °F 77 °F 91 °F (2005)
Min Temperature 51 °F 57 °F 48 °F (2006)
Growing Degree Days 16 (Base 50)    
Moisture  
Dew Point 55 °F    
Average Humidity 72    
Maximum Humidity 94    
Minimum Humidity 39    
Precipitation  
Precipitation 0.00 in - - ()
Sea Level Pressure  
Sea Level Pressure 30.34 in    
Wind  
Wind Speed 1 mph (South)    
Max Wind Speed 5 mph    
Max Gust Speed -    
Visibility 9 miles    
Events      
Averages and records for this station are not official NWS values.
T = Trace of Precipitation, MM = Missing Value Source: NWS Daily Summary

Daily Weather History Graph

Daily Weather History Graph

Search for Another Location

Airport:

Trip Planner

Search our weather history database for the weather conditions in past years. The results will help you decide how hot, cold, wet, or windy it might be!

Date:

Astronomy

Sep. 13, 2012 Rise Set
Actual Time 6:38 AM EDT 7:10 PM EDT
Civil Twilight 6:11 AM EDT 7:37 PM EDT
Nautical Twilight 5:39 AM EDT 8:09 PM EDT
Astronomical Twilight 5:06 AM EDT 8:42 PM EDT
Moon 3:55 AM EDT (9/13) 5:31 PM EDT (9/13)
Length of Visible Light 13h 26m
Length of Day
12h 31m
Waning Crescent, 7% of the Moon is Illuminated
Sep 13
Waning Crescent
Sep 15
New
Sep 22
First Quarter
Sep 29
Full
Oct 8
Last Quarter

Hourly Weather History & Observations

Time (EDT) Temp. Heat Index Dew Point Humidity Pressure Visibility Wind Dir Wind Speed Gust Speed Precip Events Conditions
12:54 AM 55.9 °F - 53.1 °F 90% 30.36 in 10.0 mi Calm Calm - N/A   Clear
1:54 AM 55.9 °F - 53.1 °F 90% 30.37 in 10.0 mi Calm Calm - N/A   Clear
2:54 AM 54.0 °F - 52.0 °F 93% 30.36 in 10.0 mi Calm Calm - N/A   Clear
3:54 AM 54.0 °F - 52.0 °F 93% 30.35 in 9.0 mi Calm Calm - N/A   Clear
4:54 AM 53.1 °F - 51.1 °F 93% 30.35 in 9.0 mi Calm Calm - N/A   Clear
5:54 AM 53.1 °F - 51.1 °F 93% 30.36 in 4.0 mi Calm Calm - N/A   Clear
6:54 AM 51.1 °F - 48.9 °F 92% 30.38 in 2.5 mi Calm Calm - N/A   Clear
7:02 AM 51.8 °F - 50.0 °F 94% 30.38 in 8.0 mi Calm Calm - N/A   Clear
7:54 AM 55.9 °F - 54.0 °F 93% 30.38 in 10.0 mi Calm Calm - N/A   Clear
8:54 AM 64.0 °F - 59.0 °F 84% 30.38 in 10.0 mi Calm Calm - N/A   Clear
9:54 AM 70.0 °F - 59.0 °F 68% 30.39 in 10.0 mi Calm Calm - N/A   Clear
10:54 AM 73.0 °F - 57.9 °F 59% 30.38 in 10.0 mi SW 3.5 mph - N/A   Clear
11:54 AM 75.9 °F - 55.0 °F 48% 30.38 in 10.0 mi SW 3.5 mph - N/A   Clear
12:54 PM 77.0 °F - 57.0 °F 50% 30.36 in 10.0 mi Variable 4.6 mph - N/A   Clear
1:54 PM 79.0 °F - 55.9 °F 45% 30.34 in 10.0 mi Variable 3.5 mph - N/A   Clear
2:54 PM 80.1 °F 80.0 °F 54.0 °F 40% 30.32 in 10.0 mi Calm Calm - N/A   Clear
3:54 PM 80.1 °F 79.9 °F 53.1 °F 39% 30.30 in 10.0 mi Variable 3.5 mph - N/A   Clear
4:54 PM 80.1 °F 80.1 °F 55.0 °F 42% 30.29 in 10.0 mi SE 4.6 mph - N/A   Clear
5:54 PM 79.0 °F - 55.9 °F 45% 30.29 in 10.0 mi Calm Calm - N/A   Clear
6:54 PM 73.0 °F - 59.0 °F 61% 30.28 in 10.0 mi SE 4.6 mph - N/A   Clear
7:54 PM 69.1 °F - 59.0 °F 70% 30.29 in 10.0 mi SSE 3.5 mph - N/A   Clear
8:54 PM 66.9 °F - 57.9 °F 73% 30.29 in 10.0 mi SSE 3.5 mph - N/A   Clear
9:54 PM 64.0 °F - 57.9 °F 80% 30.29 in 10.0 mi Calm Calm - N/A   Clear
10:54 PM 63.0 °F - 57.9 °F 84% 30.29 in 10.0 mi Calm Calm - N/A   Clear
11:54 PM 61.0 °F - 57.0 °F 87% 30.30 in 10.0 mi Calm Calm - N/A   Clear